• MPC Preparation (Info)

  • MPEC 2010-W44 : 2010 WC3

    The following Minor Planet Electronic Circular may be linked-to from your own Web pages, but must not otherwise be redistributed electronically.

    A form allowing access to any MPEC is at the bottom of this page.


    Read MPEC 2010-W43 Read MPEC 2010-W45


    M.P.E.C. 2010-W44                                Issued 2010 Nov. 28, 05:37 UT
    
         The Minor Planet Electronic Circulars contain information on unusual
             minor planets and routine data on comets.  They are published
       on behalf of Commission 20 of the International Astronomical Union by the
              Minor Planet Center, Smithsonian Astrophysical Observatory,
                              Cambridge, MA 02138, U.S.A.
    
                 Prepared using the Tamkin Foundation Computer Network
    
                                  MPC@CFA.HARVARD.EDU
           URL https://www.minorplanetcenter.org/iau/mpc.html  ISSN 1523-6714
    
                                       2010 WC3
    
    Observations:
         K10W03C* C2010 11 27.07058 22 35 23.82 -06 28 39.7          19.8 VrEW044G96
         K10W03C  C2010 11 27.07757 22 35 22.09 -06 27 15.8          19.8 VrEW044G96
         K10W03C  C2010 11 27.08451 22 35 20.43 -06 25 51.1          19.4 VrEW044G96
         K10W03C  C2010 11 27.09148 22 35 18.67 -06 24 28.1          19.9 VrEW044G96
         K10W03C  C2010 11 27.13171 22 35 08.84 -06 16 21.9          20.1 VrEW044G96
         K10W03C  C2010 11 27.13209 22 35 08.77 -06 16 17.9          20.0 VrEW044G96
         K10W03C  C2010 11 27.13247 22 35 08.66 -06 16 13.1          20.1 VrEW044G96
         K10W03C  C2010 11 27.13289 22 35 08.55 -06 16 08.0          20.0 VrEW044G96
         K10W03C KC2010 11 28.00501122 32 03.89 -03 21 03.7          20.1 VoEW044H21
         K10W03C KC2010 11 28.01062622 32 02.53 -03 19 56.2          19.8 VoEW044H21
         K10W03C KC2010 11 28.01624522 32 01.20 -03 18 48.3          20.2 VoEW044H21
         K10W03C KC2010 11 28.02185722 31 59.86 -03 17 41.1          20.0 VoEW044H21
         K10W03C  C2010 11 28.06920 22 31 50.26 -03 08 04.1          19.9 VrEW044G96
         K10W03C  C2010 11 28.07442 22 31 48.97 -03 07 00.7          20.1 VrEW044G96
         K10W03C  C2010 11 28.07965 22 31 47.71 -03 05 57.9          20.3 VrEW044G96
         K10W03C  C2010 11 28.08480 22 31 46.45 -03 04 56.3          19.9 VrEW044G96
         K10W03C KC2010 11 28.11670 22 31 37.87 -02 58 39.2          19.4 RuEW044H36
         K10W03C KC2010 11 28.12105 22 31 36.87 -02 57 46.2          19.2 RuEW044H36
         K10W03C KC2010 11 28.12452 22 31 36.14 -02 57 05.1          18.8 RuEW044H36
    
    Observer details:
    G96 Mt. Lemmon Survey.  Observer R. A. Kowalski.  Measurers J. D. Ahern,
        E. C. Beshore, A. Boattini, G. J. Garradd, A. R. Gibbs, A. D. Grauer,
        R. E. Hill, R. A. Kowalski, S. M. Larson, R. H. McNaught.  1.5-m reflector
        + CCD.
    H21 Astronomical Research Observatory, Westfield.  Observer R. Holmes.
        Measurers S. Foglia, T. Vorobjov, T. Linder.  0.61-m f/4.0 astrograph
        + CCD.
    H36 Sandlot Observatory, Scranton.  Observer G. Hug.  0.56-m reflector + CCD.
    
    Orbital elements:
    2010 WC3                                            PHA, Earth MOID = 0.0125 AU
    Epoch 2010 July 23.0 TT = JDT 2455400.5                 MPC
    M 253.78130              (2000.0)            P               Q
    n   0.71680747     Peri.   23.82291     +0.16420726     -0.94448108
    a   1.2365197      Node    57.87942     +0.84243232     -0.01581623
    e   0.2033080      Incl.   19.63488     +0.51317030     +0.32818492
    P   1.37           H   22.0           G   0.15           U   8
    Residuals in seconds of arc
    101127 G96  0.1+  0.6+    101127 G96  0.1-  0.0     101128 G96  0.0   0.3+
    101127 G96  0.0   0.2+    101128 H21  0.1+  0.5+    101128 G96  0.2-  0.0
    101127 G96  0.6+  1.1+    101128 H21  0.1-  0.4+    101128 H36  0.5-  0.0
    101127 G96  0.1-  0.0     101128 H21  0.1+  0.7+    101128 H36  0.2-  0.7+
    101127 G96  0.1-  0.4+    101128 H21  0.1+  0.3+    101128 H36  1.0+  0.0
    101127 G96  0.3+  0.2-    101128 G96  0.5+  0.2-
    101127 G96  0.0   0.0     101128 G96  0.0   0.4+
    
    Ephemeris:
    2010 WC3                 a,e,i = 1.24, 0.20, 20                  q = 0.9851
    Date    TT    R. A. (2000) Decl.     Delta      r     Elong.  Phase     V
    2010 11 20    23 02.74   -28 48.9    0.113    1.009    97.4    76.2    20.0
    2010 11 30    22 25.15   +03 15.6    0.106    0.995    91.7    82.1    20.0
    2010 12 10    21 53.75   +30 40.1    0.131    0.987    87.2    85.2    20.5
    2010 12 20    21 25.85   +46 58.0    0.172    0.985    85.5    84.5    21.1
    2010 12 30    20 59.71   +56 25.8    0.217    0.989    85.3    82.1    21.5
    2011 01 09    20 34.90   +62 31.1    0.260    1.000    86.1    78.9    21.8
    2011 01 19    20 10.04   +67 00.4    0.298    1.015    87.5    75.5    22.0
    2011 01 29    19 42.59   +70 46.5    0.329    1.036    89.5    71.9    22.2
    2011 02 08    19 06.65   +74 19.1    0.354    1.060    92.2    68.4    22.3
    2011 02 18    18 07.68   +77 37.4    0.372    1.088    95.4    64.7    22.3
    2011 02 28    16 21.89   +79 44.3    0.386    1.118    99.0    61.1    22.4
    2011 03 10    14 04.63   +78 30.5    0.397    1.149   102.9    57.4    22.4
    2011 03 20    12 32.89   +73 20.4    0.409    1.181   106.9    53.8    22.4
    2011 03 30    11 49.62   +65 47.0    0.425    1.213   110.3    50.5    22.4
    2011 04 09    11 31.17   +56 59.7    0.448    1.245   112.7    47.9    22.5
    2011 04 19    11 25.43   +47 46.8    0.482    1.276   113.6    46.2    22.7
    2011 04 29    11 26.69   +38 45.6    0.527    1.305   112.9    45.3    22.9
    2011 05 09    11 32.34   +30 19.5    0.583    1.333   110.8    45.1    23.2
    
    Carl W. Hergenrother         (C) Copyright 2010 MPC           M.P.E.C. 2010-W44
    

    Read MPEC 2010-W43 Read MPEC 2010-W45


    MPEC number:

    Enter an MPEC number in one of the following forms:

    • 1997-B01 (the full form)
    • J97B01 (the packed version of the full form)
    • B01 (the abbreviated form)